SL-8 DEB *

Satellite information

Favourite Embed

Satellite Type and Status

DEBRISIN ORBIT

Key statistics

Satellite SL-8 DEB * at a glance.

Uptime

15802

Days in orbit

Revolutions

≈ 14.6

Per day

Orbit

LEO

Low Earth Orbit

Inclination

74.0

Latest

Satellite identification and parameters

Extended collection of information and parameters for SL-8 DEB *.

Object identification

Identified? True

Debris? True

Object name: SL-8 DEB *

International designator: 1982-051G

Object number (NORAD): 19102

Object ID (CCSDS): 19102

Country: COMMONWEALTH OF INDEPENDENT STATES (CIS)

Current information (Y/N): Y

RCS size: SMALL

Orbital parameters

Period: 98.394 minutes

Inclination: 74.0447 deg

SMA: 7060.039 km

Apoapsis: 689.353 km

Periapsis: 674.455 km

RAAN: 191.3147 deg

Eccentricy: 0.00105512

Argument of periapsis: 215.2181 deg

Mean anomaly: 305.8059 deg

Mean motion: 14.63497849 rev/day

Mean motion (dot): 0.00004413 rev/day2

B* drag term: 0.00085602353 1/REarth

Two-line elements (TLE)

Creation date: Sept. 4, 2025, 10:13 a.m.

Reference frame: TEME

Reference center: EARTH

Epoch: Sept. 4, 2025, 6:58 a.m. UTC

TLE line 0: 0 SL-8 DEB *

TLE line 1: 1 19102U 82051G 25247.29088875 .00004413 00000-0 85602-3 0 9992

TLE line 2: 2 19102 74.0447 191.3147 0010551 215.2181 305.8059 14.63497849973362

Live tracking on map

Real-time ground track for satellite SL-8 DEB *.

In-orbit conjunctions

A list of the most updated potential collisions computed for object SL-8 DEB *.

Target Orbit TCA Probability of collision Miss distance Type
FENGYUN 1C DEB SSO 2024-11-09 10:45:16 0.0001790132 537.0 (m) DEBRIS
SAC C SSO 2024-06-24 05:51:16 0.0005813492 164.0 (m) PAYLOAD

Associated space launch

Military communications satellite

SL-8 DEB * was lifted into orbit during the mission ‘Kosmos-3M | Strela-2M 28’, on board a Kosmos-3M space rocket.

The launch took place on June 1, 1982, 4:37 a.m. from 132/1 (132L).

For more information about the launch, click the button.

Launch to space Kosmos-3M | Strela-2M 28
Kosmos-3M | Strela-2M 28

Agency: N/A

Status: Launch Successful

Launch date: June 1, 1982, 4:37 a.m. UTC

Rocket: Kosmos-3M

Launch pad: 132/1 (132L)

Location: Plesetsk Cosmodrome, Russian Federation

...

Latest news about this satellite

There are no fresh news available about this satellite. Check back as we update our databases every day.


Newsletter sign-up

Weekly statistics, charts and insights to help you stay on top of the space industry.